Voltar ao catálogo

METEOR 2-17 DEB

AtivoPO
NORAD 31402·DEBRIS·🇷🇺 Russia

Lançado Jan 30, 1988 de Plesetsk Cosmodrome

Loading…

Próximas Passagens (próximas 24 horas)

TLE

AtualizadoSource: Space-Track

Época: Sep 13, 2026, 12:53 UTC

1 31402U 88005X   26256.53747745  .00000572  00000-0  33851-3 0  9991
2 31402  82.5410 189.0853 0009961 358.7288   1.3858 14.06121874 11126

Acompanhe METEOR 2-17 DEB em tempo real com AllMySat

Download on the App Store